Regional Weather Roundup
Issued by NWS

Home | Current Version | Previous Version | Graphics & Text | Print | Product List | Glossary On
Versions: 1 2 3 4 5 6 7 8 9 10 11 12 13 14 15 16 17 18 19 20 21 22 23 24 25 26 27 28 29 30 31 32 33 34 35 36 37 38 39 40 41 42 43 44 45 46 47 48 49 50
362
ASUS45 KBOU 231607
RWRCO

WEATHER ROUNDUP FOR COLORADO
NATIONAL WEATHER SERVICE DENVER/BOULDER CO
1000 AM MDT THU MAR 23 2017

NOTE: "FAIR" INDICATES FEW OR NO CLOUDS BELOW 12000 FEET WITH NO
SIGNIFICANT WEATHER AND/OR OBSTRUCTIONS TO VISIBILITY.

COZ001>005-013-030-031-231700-
...NORTHWEST COLORADO...

CITY           SKY/WX    TMP DP  RH WIND       PRES   REMARKS
CRAIG          CLOUDY    51  31  46 SW20G35   29.75F
HAYDEN         FAIR      52  27  37 NW3       29.75F
MEEKER         FAIR      48  35  60 W10       29.77F
MOUNT WERNER   NOT AVBL
STEAMBOAT SPGS FAIR      52  26  36 SE8       29.76F
WALDEN         NOT AVBL
$$

COZ006>008-011-231700-
...WEST CENTRAL VALLEYS...

CITY           SKY/WX    TMP DP  RH WIND       PRES   REMARKS
GRAND JUNCTION FAIR      52  40  63 NE6       29.76S
MONTROSE       FAIR      55  29  36 VRB3      29.77F
EAGLE          MOSUNNY   46  32  57 CALM      29.80F
RIFLE          FAIR      56  35  45 W21G29    29.76S
DELTA          PTSUNNY   58  29  33 SW14G22   29.75F
NUCLA          LGT RAIN  43  34  70 SW12      29.84F
$$

COZ017>023-064>068-231700-
...SOUTHWEST COLORADO...

CITY           SKY/WX    TMP DP  RH WIND       PRES   REMARKS
DURANGO        CLOUDY    49  30  48 S16       29.86S
CORTEZ         PTSUNNY   46  36  68 W7        29.81F
PAGOSA SPRINGS FAIR      46  28  49 SW7       29.89F THUNDER
TELLURIDE      CLOUDY    40  22  47 SE14G22   29.86F
WOLF CREEK PAS FOG       23  23 100 S17G36    30.00F VSB 1   WCI   9
$$

COZ009-010-012-014-032>034-037-058>063-231700-
...CENTRAL COLORADO...

CITY           SKY/WX    TMP DP  RH WIND       PRES   REMARKS
ASPEN          FAIR      46  30  53 VRB3      29.79F
BUENA VISTA    PTSUNNY   51  15  24 S16G23    29.84F
COPPER MTN     FAIR      34  14  44 S16G29    29.95F WCI  23
BERTHOUD PASS  FAIR      30  19  64 S10G22    29.95F WCI  21
COTTONWOOD PAS PTSUNNY   45  10  24 S17G24    29.89F
GUNNISON       FAIR      48  27  44 S12       29.83F
KREMMLING      FAIR      54  28  37 W5        29.81F
LEADVILLE      FAIR      38  15  39 S14       29.87F
MONARCH PASS   FAIR      32  18  55 SW32G40   30.05R WCI  17
SALIDA         PTSUNNY   54  19  26 SW8       29.91F
SUNLIGHT       PTSUNNY   32  21  64 S6G20     29.93S WCI  26
WILKERSON PASS FAIR      37  10  32 SW10G23   29.95F
$$

COZ069>075-231700-
...SAN LUIS VALLEY/SANGRE DE CRISTO MOUNTAINS...

CITY           SKY/WX    TMP DP  RH WIND       PRES   REMARKS
ALAMOSA        FAIR      54  22  28 SW17G31   29.86F
LA VETA PASS   NOT AVBL
SAGUACHE       FAIR      52  25  35 SW13G25   29.87F
$$

COZ035-036-038>040-231700-
...NORTHERN COLORADO FRONT RANGE...

CITY           SKY/WX    TMP DP  RH WIND       PRES   REMARKS
DENVER INTL AP FAIR      68  20  16 SW16      29.69F
DMNS CITY PARK   N/A     67  18  15 SE12      29.69S
AURORA         MOSUNNY   66  19  16 SW16G22   29.70F
FRONT RANGE AP MOSUNNY   70  19  14 S16G23    29.71F
ERIE MUNI ARPT FAIR      63  30  29 SE6       29.68F
BOULDER MUN AP FAIR      68  21  17 S8        29.66F
CENTENNIAL     FAIR      65  16  15 SW15G25   29.71F
BROOMFIELD     MOSUNNY   66  19  16 S14       29.70F
FORT COLLINS   FAIR      55  37  50 SE7       29.68F
LONGMONT       FAIR      58  36  43 CALM      29.69F
$$

COZ041-046-047-076>085-087-088-231700-
...PIKES PEAK/PALMER DIVIDE AND SOUTHERN FOOTHILLS...

CITY           SKY/WX    TMP DP  RH WIND       PRES   REMARKS
COLO. SPRINGS  FAIR      64  22  20 SW16      29.75F
A. F. ACADEMY  FAIR      63  18  17 S16G24    29.76S
SCHRIEVER AFB  FAIR      63  21  20 SW18G24   29.76F
ELLICOTT         N/A    N/A N/A N/A SW12      29.75F
FALCON         FAIR      60  22  23 S15G21    29.80S
FORT CARSON    SUNNY     52  36  54 MISG      29.74F
LIMON          FAIR      59  43  55 NE3       29.71F
MONUMENT HILL  FAIR      59  19  21 SW14G24   29.80F
TRINIDAD       FAIR      69  16  13 SW20G29   29.75F
$$

COZ042>045-048>051-090-091-231700-
...NORTHEAST COLORADO...

CITY           SKY/WX    TMP DP  RH WIND       PRES   REMARKS
GREELEY ARPT   FAIR      54  39  57 SW6       29.68F
AKRON          FAIR      61  44  53 W8        29.69S
BURLINGTON     FAIR      66  52  60 SW12      29.70F
WRAY           NOT AVBL
STERLING       FAIR      46  37  71 CALM      29.67F
HOLYOKE        FAIR      59  46  63 NW3       29.68S
FORT MORGAN    FAIR      52  37  56 CALM      29.69S
$$

COZ086-089-092>099-231700-
...SOUTHEAST COLORADO...

CITY           SKY/WX    TMP DP  RH WIND       PRES   REMARKS
PUEBLO         FAIR      63  33  32 NW7       29.69F
LA JUNTA       FAIR      66  39  37 SW5       29.70S
LAMAR          FAIR      72  44  36 S8        29.67F
SPRINGFIELD      N/A     64  47  53 S21G28    29.75S
$$




USA.gov is the U.S. government's official web portal to all federal, state and local government web resources and services.